This demonstration page uses our WeatherBlox Daily Observations layout. Learn more.

Left ArrowRight Arrow

39.12711, -84.51439

Hourly Observations for September 25, 2018

Temp ( °F °C ) Dew Point ( °F °C ) Humidity (%) Winds ( mph kmh ) Pressure ( in mb ) Visibility ( mi km ) Precip ( " mm )
12:19 am 00:19 Cloudy 69 20.6 68 20 96 96 SSW 8 13 30.03 1017 10 16 0.00 0.00
12:30 am 00:30 Cloudy 69 20.6 69 20.6 100 100 S 9 15 30.03 1017 10 16 0.00 0.00
12:53 am 00:53 Cloudy 69 20.6 69 20.6 100 100 S 9 15 30.06 1018 10 16 0.00 0.00
1:53 am 01:53 Cloudy 69 20.6 69 20.6 100 100 S 6 9 30.05 1018 10 16 0.00 0.00
2:53 am 02:53 Mostly Cloudy 69 20.6 69 20.6 100 100 S 7 11 30.05 1018 10 16 0.00 0.00
3:53 am 03:53 Cloudy 68 20 68 20 100 100 S 3 6 30.04 1017 10 16 0.01 0.25
4:26 am 04:26 Mostly Cloudy 68 20 68 20 100 100 Calm 30.00 1016 10 16 0.00 0.00
4:53 am 04:53 Mostly Cloudy 68 20 68 20 100 100 S 5 7 30.03 1017 10 16 0.00 0.00
5:06 am 05:06 Partly Cloudy 69 20.6 69 20.6 100 100 S 7 11 30.00 1016 10 16 0.00 0.00
5:33 am 05:33 Mostly Cloudy 69 20.6 69 20.6 100 100 S 5 7 30.00 1016 10 16 0.00 0.00
5:53 am 05:53 Cloudy 69 20.6 69 20.6 100 100 SSW 6 9 30.04 1017 10 16 0.00 0.00
6:53 am 06:53 Cloudy 69 20.6 69 20.6 100 100 SSW 6 9 30.04 1017 10 16 0.00 0.03
7:53 am 07:53 Cloudy 70 21.1 69 20.6 97 97 SSW 8 13 30.05 1018 8 13 0.00 0.03
8:53 am 08:53 Cloudy with Light Rain 71 21.7 70 21.1 96 96 S 8 13 30.05 1018 6 10 0.00 0.03
9:24 am 09:24 Cloudy 72 22.2 71 21.7 97 97 S 10 17 30.03 1017 10 16 0.00 0.03
9:53 am 09:53 Cloudy with Light Rain 72 22.2 71 21.7 97 97 S 9 15 30.05 1018 8 13 0.00 0.03
10:53 am 10:53 Cloudy 72 22.2 71 21.7 97 97 S 7 11 30.06 1018 8 13 0.00 0.03
11:32 am 11:32 Cloudy 73 22.8 72 22.2 96 96 S 9 15 30.03 1017 8 13 0.00 0.00
11:53 am 11:53 Cloudy 74 23.3 72 22.2 94 94 S 8 13 30.05 1018 10 16 0.00 0.00
12:45 pm 12:45 Cloudy 75 23.9 73 22.8 94 94 SSW 7 11 30.03 1017 10 16 0.00 0.00
12:53 pm 12:53 Cloudy 75 23.9 73 22.8 94 94 SSW 8 13 30.05 1018 10 16 0.00 0.00
1:53 pm 13:53 Cloudy 76 24.4 72 22.2 88 88 SSW 12 19 30.04 1017 10 16 0.00 0.00
2:14 pm 14:14 Cloudy 76 24.4 72 22.2 88 88 SSW 9 15 30.03 1017 10 16 0.00 0.00
2:53 pm 14:53 Cloudy 76 24.4 73 22.8 91 91 S 7 11 29.98 1015 10 16 0.00 0.00
3:53 pm 15:53 Mostly Sunny 79 26.1 74 23.3 85 85 S 14 22 29.96 1015 10 16 0.00 0.00
4:53 pm 16:53 Partly Cloudy 79 26.1 74 23.3 85 85 S 9 15 29.93 1014 10 16 0.00 0.00
5:53 pm 17:53 Mostly Sunny 77 25 73 22.8 88 88 S 10 17 29.93 1014 10 16 0.00 0.00
6:53 pm 18:53 Cloudy with Light Rain 76 24.4 74 23.3 94 94 S 8 13 29.95 1014 10 16 0.00 0.03
7:38 pm 19:38 Cloudy with Rain 75 23.9 74 23.3 96 96 SW 5 7 29.91 1013 4 6 0.07 1.78
7:53 pm 19:53 Cloudy with Rain 74 23.3 74 23.3 100 100 W 7 11 29.95 1014 6 10 0.10 2.54
8:08 pm 20:08 Mostly Cloudy 73 22.8 73 22.8 100 100 SW 7 11 29.94 1014 10 16 0.00 0.03
8:53 pm 20:53 Mostly Cloudy 73 22.8 72 22.2 96 96 S 7 11 29.96 1014 10 16 0.00 0.03
9:51 pm 21:51 Cloudy 72 22 72 22 100 100 S 5 7 29.94 1014 10 16 0.00 0.00
9:53 pm 21:53 Cloudy 72 22.2 72 22.2 100 100 S 5 7 29.96 1014 10 16 0.00 0.00
10:11 pm 22:11 Cloudy 72 22.2 72 22.2 100 100 S 6 9 29.94 1014 10 16 0.00 0.00
10:53 pm 22:53 Cloudy 72 22.2 72 22.2 100 100 SW 3 6 29.96 1015 10 16 0.00 0.00
11:13 pm 23:13 Cloudy 73 22.8 73 22.8 100 100 SW 5 7 29.94 1014 10 16 0.00 0.00
11:53 pm 23:53 Cloudy 72 22.2 72 22.2 100 100 SSW 3 6 29.96 1015 10 16 0.00 0.00

Powered by AerisWeather